{"data":{"norad_id":59175,"epoch":"2026-09-22T16:39:37.092384Z","epoch_age_seconds":68334,"freshness":"FRESH","line1":"1 59175U 23174DK  26265.69417931  .00006686  00000+0  19183-3 0  9995","line2":"2 59175  97.3760 345.9937 0009001 171.4346 188.7053 15.36168590160000","mean_motion":15.3616859,"eccentricity":0.0009001,"inclination_deg":97.376,"raan_deg":345.9937,"arg_perigee_deg":171.4346,"mean_anomaly_deg":188.7053,"bstar":0.00019183,"rev_number":16000,"period_min":93.739711212296,"perigee_km":451.29894859282,"apogee_km":463.60437530206,"semimajor_km":6835.5886619474,"source":"CELESTRAK","updated_at":"2026-09-23T09:00:19.221309Z"}}